SCP
1 0 0 0 0 0 0 0 0 0 0 0 0 0 0 0 0 0 0 1 1 1 1 1 1 1 1 1 0 0 0 0 1 1 1 1 1 1 0 1 1 1 1 1 1 1 1 1 1
0 0 0 0 0 0 0 0 0 0 0 0 0 0 0 0 0 0 0 1 1 1 1 1 1 1 1 1 0 0 0 0 1 1 1 1 1 0 0 0 0 0 1 1 1 1 1 1 1
0 0 0 0 0 0 0 0 0 0 0 0 0 0 0 0 0 0 1 1 1 1 1 1 1 1 0 0 0 0 0 0 1 1 1 0 0 0 0 0 0 0 0 1 1 1 0 0 1
0 0 0 0 0 0 0 0 0 0 0 0 0 0 0 0 0 0 1 1 1 0 0 1 1 1 0 0 0 0 1 1 1 1 0 0 0 0 0 0 0 0 0 0 1 0 0 0 0
0 0 0 0 0 0 0 0 0 0 0 0 0 0 0 0 0 0 0 0 0 0 0 0 0 0 0 0 0 1 1 1 1 1 1 0 0 0 0 0 0 0 0 0 0 0 0 0 0
0 0 0 0 0 0 0 0 0 0 0 0 0 0 0 0 0 0 0 0 0 0 0 0 0 0 0 0 0 1 1 1 1 1 0 0 0 0 0 0 0 0 0 0 0 0 0 0 0
0 0 0 0 0 0 0 0 0 0 0 0 0 0 0 0 0 0 0 0 0 0 0 0 0 0 1 1 1 1 1 1 0 0 0 0 0 0 0 0 0 0 0 0 0 0 0 0 0
0 0 0 0 0 0 0 0 0 0 0 0 0 0 0 0 0 0 0 0 0 0 0 0 0 0 0 0 1 1 1 1 1 1 1 0 0 0 0 0 0 0 0 0 0 0 0 0 0
0 0 0 0 0 0 0 0 0 0 0 0 0 0 0 0 0 0 0 0 0 0 0 0 0 0 0 0 0 0 0 1 1 1 1 0 0 0 0 0 0 0 0 0 0 0 0 0 0
0 0 0 0 0 0 0 0 0 0 0 0 0 0 0 0 0 0 0 0 0 0 0 0 0 0 0 0 0 0 0 0 0 0 0 0 0 0 0 0 0 0 0 0 0 0 0 0 0
0 0 0 0 0 0 0 0 0 0 0 0 0 0 1 0 0 0 0 0 0 0 0 0 0 0 0 0 0 0 0 0 0 0 0 0 0 0 0 0 0 0 0 0 0 0 0 0 0
0 0 0 0 0 0 0 0 0 0 0 0 0 1 1 0 0 0 0 0 0 0 0 0 0 0 0 0 0 0 0 0 0 0 0 0 0 0 0 0 0 0 0 0 0 0 0 0 0
0 0 0 0 0 0 0 0 0 0 0 0 1 1 1 1 0 0 0 0 0 0 0 0 0 0 0 0 0 0 0 0 0 0 0 0 0 0 0 0 0 0 0 0 0 0 0 0 0
0 0 0 0 0 0 0 0 0 0 0 0 1 1 1 1 0 0 0 0 0 0 0 0 0 0 0 0 0 0 0 0 0 0 0 0 0 0 0 0 0 0 0 0 0 0 0 0 0
0 0 0 0 0 0 0 0 0 0 0 1 1 1 1 0 0 0 0 0 0 0 0 0 0 0 0 0 0 0 0 0 0 0 0 0 0 0 0 0 0 0 0 0 0 0 0 0 0
0 0 0 0 0 0 0 0 0 0 0 1 1 1 1 0 0 0 0 0 0 0 0 0 0 0 0 0 0 0 0 0 0 0 0 0 0 0 0 0 0 0 0 0 0 0 0 0 0
0 0 0 0 0 0 0 0 0 0 0 1 1 1 1 1 0 0 0 0 0 0 0 0 0 0 0 0 0 0 0 0 0 0 0 0 0 0 0 0 0 0 0 0 0 0 0 0 0
0 0 0 0 0 0 0 0 0 1 1 1 1 1 1 1 1 0 0 0 0 0 0 0 0 0 0 0 0 0 0 0 0 0 0 0 0 0 0 0 0 0 0 0 0 0 0 0 0
0 0 0 0 0 0 0 0 0 1 1 1 1 1 1 1 1 1 1 1 1 0 0 0 0 0 0 0 0 0 0 0 0 0 0 0 0 0 0 0 0 0 0 0 0 0 0 0 0
0 0 0 0 0 0 0 0 0 1 1 1 1 1 1 1 1 1 1 1 1 1 0 0 0 0 0 0 0 0 0 0 0 0 0 0 0 0 0 0 0 0 0 0 0 0 0 0 0
0 0 0 0 0 0 0 0 0 1 1 1 1 1 1 1 1 1 1 1 1 1 0 0 0 0 0 0 0 0 0 0 0 0 0 0 0 0 0 0 0 0 0 0 0 0 0 0 0
0 0 0 0 0 0 0 0 0 1 1 1 1 1 1 1 2 2 1 1 1 1 1 0 0 0 0 0 0 0 0 0 0 0 0 0 0 0 0 0 0 0 0 0 0 0 0 0 0
0 0 0 0 0 0 0 0 0 0 1 1 1 1 1 1 2 2 2 1 1 1 1 0 0 0 0 0 0 0 0 0 0 0 0 0 0 0 0 0 0 0 0 0 0 0 0 0 0
0 0 0 0 0 0 0 0 0 0 0 1 1 1 1 1 2 2 2 2 1 1 1 0 0 0 0 0 0 0 0 0 0 0 0 0 0 0 0 0 0 0 0 0 0 0 0 0 0
0 0 0 0 0 0 0 0 0 0 0 0 1 1 1 2 2 2 2 2 2 1 1 0 0 0 0 0 0 0 0 0 0 0 0 0 0 0 0 0 0 0 0 0 0 0 0 0 0
0 0 0 0 0 0 0 0 0 0 0 0 0 1 1 2 2 2 3 3 2 2 1 1 0 0 0 0 0 0 0 0 0 0 0 0 0 0 0 0 0 0 0 0 0 0 0 0 0
0 0 0 0 0 0 0 0 0 0 0 0 0 1 1 2 2 2 3 3 3 3 2 1 0 0 0 0 0 0 0 0 0 0 0 0 0 0 0 0 0 0 0 0 0 0 0 0 0
0 0 0 0 0 0 0 0 0 0 0 0 0 0 1 1 2 2 2 3 4 3 2 1 1 0 0 0 0 0 0 0 0 0 0 0 0 0 0 0 0 0 0 0 0 0 0 0 0
0 0 0 0 0 0 0 0 0 0 0 0 0 0 1 1 2 2 2 3 3 4 3 2 1 1 0 0 0 0 0 0 0 0 0 0 0 0 0 0 0 0 0 0 0 0 0 1 1
0 0 0 0 0 0 0 0 0 0 0 0 0 1 1 1 2 2 2 2 3 4 3 2 1 1 0 0 0 0 0 0 0 0 0 0 0 0 0 0 0 0 0 0 0 0 0 1 1
Wind_Speed
1 1 2 3 4 4 2 1 1 2 4 4 8 9 9 6 4 5 2 5 7 5 3 6 9 10 10 10 10 11 11 11 12 12 12 12 11 11 11 11 11 11 11 10 10 11 11 10 10
1 1 3 3 4 3 1 1 3 4 6 6 8 8 8 6 5 6 3 5 7 5 4 5 9 10 10 11 10 11 11 11 11 11 12 11 11 10 10 10 10 10 10 10 10 10 10 10 10
0 0 3 3 3 2 2 1 5 5 5 5 6 6 5 4 4 4 4 7 7 5 3 5 9 10 11 11 11 11 11 11 11 11 11 11 10 10 9 9 9 9 9 9 9 9 10 10 10
2 3 3 4 3 0 3 3 5 7 5 6 6 6 4 3 3 5 7 8 8 5 4 6 10 10 10 11 11 10 11 10 10 10 10 10 9 9 9 8 9 9 8 8 8 9 9 9 10
3 3 4 3 1 1 1 2 3 5 4 5 7 6 4 2 6 9 8 8 8 5 4 5 10 10 10 10 10 10 10 10 9 9 9 8 8 8 8 8 8 8 8 8 8 8 9 9 9
4 4 4 2 2 1 2 4 7 9 7 6 7 6 2 2 6 6 7 7 7 6 4 4 9 10 9 9 9 9 9 9 9 8 7 7 7 7 7 7 7 7 7 7 6 7 7 8 8
3 3 2 2 2 2 2 3 5 6 5 4 5 6 3 2 4 6 7 7 6 5 4 3 3 5 7 8 8 8 7 7 7 7 6 6 6 6 5 5 6 6 5 5 5 5 6 7 8
4 4 2 1 2 1 1 3 4 5 4 3 4 7 5 5 4 6 6 6 6 5 4 3 3 2 2 3 6 6 6 6 5 5 4 4 4 4 4 4 4 4 4 4 3 4 6 7 7
4 5 1 1 2 1 2 4 3 4 5 4 3 4 7 8 7 7 6 4 4 5 3 4 3 3 2 2 3 4 4 4 3 3 4 3 2 1 1 2 3 3 3 3 3 3 5 6 7
4 3 1 2 3 3 3 4 4 4 5 5 5 5 7 7 7 7 6 5 5 5 4 4 4 4 3 2 2 1 1 1 1 1 1 1 1 0 1 1 2 2 3 3 3 4 5 5 4
3 3 1 1 3 4 4 3 3 6 4 5 8 9 7 7 6 7 6 6 5 5 5 5 4 4 3 2 2 1 0 0 0 0 1 1 1 1 1 1 1 2 3 3 4 4 3 4 4
3 1 2 1 2 3 4 3 4 3 4 6 9 9 7 7 6 6 6 5 4 4 4 5 5 4 3 2 2 1 1 1 0 0 1 2 1 1 1 1 1 1 1 2 3 3 4 5 5
2 2 2 3 4 4 5 5 4 3 5 7 8 8 8 7 6 5 6 5 4 4 3 4 5 4 3 3 2 2 1 1 1 1 1 2 2 2 1 1 1 1 2 3 3 4 5 6 6
3 3 2 3 4 3 6 3 4 3 6 8 8 7 7 7 7 5 5 5 5 4 4 4 4 4 4 3 2 2 2 2 2 2 2 3 3 3 2 2 2 2 2 3 4 5 5 5 5
3 3 2 1 3 3 6 2 2 5 7 7 7 7 6 6 6 7 7 6 6 5 4 5 5 5 5 4 3 3 2 3 3 2 3 4 3 3 3 3 3 2 3 4 4 5 5 5 5
2 2 1 2 3 3 6 2 4 5 7 6 6 6 6 5 5 6 6 5 5 5 4 4 5 5 5 4 4 3 3 3 3 3 3 4 4 4 4 3 3 3 3 4 4 4 4 4 4
0 1 2 2 3 3 4 4 5 6 7 7 6 6 6 5 5 5 6 6 6 6 5 4 5 5 5 5 4 4 3 3 2 3 3 3 4 4 4 3 2 3 3 3 4 3 4 4 4
3 3 2 4 4 4 4 4 5 6 7 8 6 6 7 7 7 7 6 7 6 5 5 5 5 5 5 4 4 3 3 3 2 3 3 3 3 4 4 3 3 4 4 3 4 4 4 3 3
3 2 2 3 3 4 4 4 6 7 6 6 6 7 7 8 7 6 6 7 6 5 5 5 5 5 4 3 3 2 2 1 2 2 3 3 3 4 4 3 3 3 3 3 4 4 5 3 3
3 1 1 2 2 3 4 4 6 7 9 9 10 9 8 7 5 6 6 6 6 6 5 5 6 5 5 3 3 3 3 1 1 1 2 3 3 3 3 4 3 3 3 4 4 4 3 1 1
2 4 4 3 1 1 2 2 3 4 5 6 8 8 9 10 10 8 7 7 6 6 7 6 6 5 5 5 4 3 3 2 2 2 1 1 2 3 3 4 3 3 3 3 3 3 4 2 0
4 4 4 3 2 2 3 2 6 5 5 7 8 8 9 9 9 8 8 7 7 6 6 6 6 5 5 6 5 5 4 2 2 1 1 1 2 3 3 3 4 3 3 3 2 2 2 3 1
4 4 3 3 2 1 2 2 6 3 6 9 9 10 10 10 10 10 10 9 7 6 6 6 5 5 5 5 6 6 4 3 1 1 2 1 1 2 3 3 3 3 2 2 3 3 3 2 2
1 2 3 2 3 2 5 4 5 5 9 9 9 10 10 10 10 10 9 7 5 5 5 5 6 4 4 5 6 6 6 4 3 2 2 1 1 1 2 3 3 3 2 3 3 3 4 3 3
4 4 3 3 1 5 3 3 7 8 8 10 11 10 9 9 9 9 9 8 7 6 6 6 6 4 4 5 5 5 6 6 6 4 3 3 1 1 1 2 3 3 3 3 3 3 3 3 4
2 6 6 4 4 4 1 4 6 5 5 6 7 8 8 9 9 10 10 9 8 8 7 6 6 5 5 5 4 4 5 4 3 4 4 4 3 2 3 3 3 3 3 4 3 3 3 3 3
2 3 5 4 2 1 3 3 4 3 1 2 5 7 8 9 9 9 9 9 9 8 8 8 7 5 5 5 5 4 4 4 4 4 4 3 3 3 4 4 4 3 3 3 4 3 3 3 3
4 4 3 3 1 2 3 2 3 3 2 2 5 7 8 8 8 9 9 9 8 8 7 7 7 6 5 5 5 4 4 4 4 4 5 4 4 3 4 4 4 3 3 3 4 3 3 4 2
1 2 3 3 3 4 2 5 5 7 6 6 6 7 8 9 9 9 8 8 8 7 7 7 6 6 5 5 4 4 4 4 4 4 4 4 3 4 4 4 4 4 3 3 4 3 3 4 3
4 4 5 4 2 3 2 6 5 4 4 5 5 6 7 8 8 8 8 7 7 7 6 7 6 6 6 5 5 5 4 4 4 4 3 3 3 3 4 5 4 4 4 4 4 4 4 4 3
Wind_Direction
288 43 84 57 53 51 44 5 121 87 63 54 69 78 81 64 83 122 157 131 118 111 98 101 99 100 99 99 96 94 92 93 94 95 96 95 94 93 92 91 90 89 85 81 80 79 76 71 68
53 70 70 58 75 67 25 16 85 92 133 121 76 72 75 69 75 106 115 130 120 112 102 105 103 103 102 100 97 94 93 93 95 97 97 96 96 93 92 92 92 89 85 82 79 78 75 69 63
300 134 84 67 77 134 135 155 112 93 103 96 81 58 73 92 100 119 146 138 117 104 98 109 106 106 105 102 99 97 96 95 96 97 96 96 96 94 93 92 93 92 87 82 79 76 72 69 62
57 46 55 69 73 209 150 165 121 103 65 62 94 70 61 71 116 132 139 131 117 109 102 108 105 106 108 105 103 102 101 101 100 98 97 95 92 93 95 94 94 94 89 83 79 76 74 68 60
71 71 58 53 63 30 86 113 107 101 79 75 90 90 65 34 108 125 133 128 125 122 114 114 110 108 108 108 107 104 104 103 102 101 99 97 95 94 96 95 96 95 93 89 81 76 73 67 61
58 65 75 73 73 66 50 76 87 90 103 101 92 100 89 117 119 132 131 130 132 130 122 116 115 114 112 111 111 110 107 106 106 106 104 102 99 98 100 100 101 101 98 92 84 76 71 68 65
102 89 111 134 107 76 111 91 88 103 102 99 109 103 118 156 146 137 129 129 131 130 123 111 113 115 119 120 121 118 116 113 112 110 105 103 103 106 108 109 112 108 101 93 83 75 69 67 65
123 97 75 94 114 93 96 86 96 104 103 106 108 128 157 182 153 123 122 125 132 138 140 143 132 119 117 123 130 131 128 124 119 111 106 102 104 114 116 114 121 113 101 90 68 73 72 66 63
85 78 91 185 151 151 97 88 63 65 85 61 68 127 153 155 134 121 117 119 135 148 161 165 160 159 160 164 151 139 132 125 115 101 103 85 52 62 103 131 123 108 94 87 78 76 73 63 63
81 103 205 202 160 142 112 105 113 87 76 77 81 98 131 136 134 136 139 143 150 159 173 175 176 178 173 167 123 109 115 91 79 65 86 85 61 21 107 90 110 84 68 65 66 62 65 65 64
119 154 174 79 120 119 106 82 97 115 107 152 146 146 146 140 140 145 150 157 164 168 170 171 175 173 166 150 134 129 87 75 61 213 189 143 94 63 44 46 34 32 43 39 42 50 61 74 78
110 128 133 116 103 104 112 104 85 107 160 167 154 152 151 151 154 156 159 166 157 154 161 165 163 161 159 139 135 124 110 89 65 218 128 124 116 104 102 74 41 40 45 58 56 62 74 84 83
99 136 104 115 105 114 111 106 106 111 138 141 141 147 157 162 164 166 163 158 155 153 160 160 151 151 143 134 125 106 104 97 75 62 92 115 113 108 99 89 67 58 72 84 87 80 82 84 84
146 126 125 124 115 108 111 116 110 158 148 144 149 158 162 163 166 164 157 154 158 154 153 144 141 144 129 123 120 118 103 88 69 60 68 97 106 106 98 81 71 66 80 91 96 94 90 84 83
126 104 69 158 149 143 112 81 163 172 153 155 165 163 163 168 167 167 171 167 163 163 154 142 136 128 123 123 123 112 102 92 75 61 60 75 89 96 92 86 80 78 88 88 87 83 82 84 81
79 95 152 248 171 163 121 184 221 174 158 166 169 171 169 169 168 167 167 162 156 154 145 142 129 125 123 118 110 102 93 88 76 67 65 69 78 86 87 86 83 92 91 91 93 88 85 80 77
51 171 196 233 203 159 143 195 214 184 168 176 178 179 171 171 178 175 169 165 156 152 143 128 119 126 124 114 102 95 88 81 74 66 68 68 72 80 90 88 86 96 94 93 103 90 98 96 87
208 196 197 205 210 161 166 202 205 196 179 184 184 185 175 177 187 179 172 164 156 148 142 129 123 126 121 106 91 76 67 58 59 64 69 74 73 80 89 87 83 91 93 85 95 96 87 96 101
180 184 207 228 207 166 189 207 207 202 189 187 186 188 187 190 192 177 168 157 149 149 147 140 135 134 127 116 110 101 88 67 59 65 75 74 78 82 86 90 86 92 100 107 111 104 94 87 100
184 171 238 256 212 178 198 229 218 200 195 190 189 192 190 185 176 176 170 162 161 165 164 152 150 151 149 140 138 137 132 119 112 67 61 69 82 85 96 94 97 99 99 96 101 106 105 105 110
206 185 206 209 254 259 140 288 253 231 211 201 196 191 189 185 182 179 174 172 166 169 170 165 165 159 154 140 115 93 72 54 45 39 38 40 87 92 96 103 103 103 107 120 122 122 121 132 58
222 217 193 179 155 246 179 241 263 224 213 207 203 194 193 191 181 177 175 175 176 179 170 161 164 157 155 145 137 137 138 150 185 185 165 66 77 94 98 106 107 106 104 116 126 119 119 130 129
216 214 196 193 167 263 234 196 271 210 218 220 210 200 196 192 182 179 177 179 176 168 161 161 159 157 160 154 150 146 149 165 162 139 120 92 52 80 100 105 106 107 107 112 105 98 94 110 128
145 45 25 46 79 270 229 187 265 218 214 211 207 203 197 189 185 181 176 168 164 160 153 152 155 164 166 158 155 155 160 159 151 150 142 131 86 64 90 103 107 111 112 111 109 103 96 91 90
77 85 37 356 347 256 221 178 245 233 213 199 197 199 194 180 175 171 166 164 163 161 160 158 157 161 165 157 162 168 169 168 171 171 167 157 148 142 138 120 117 115 116 112 106 99 97 99 99
186 147 161 196 225 273 283 220 254 253 210 195 189 184 177 173 173 174 175 173 170 166 163 162 166 167 165 161 167 170 170 173 175 176 170 172 173 176 162 143 130 123 120 116 108 101 103 99 104
173 203 183 161 232 261 272 280 318 13 67 169 169 168 176 177 174 175 175 173 171 171 173 172 167 164 168 170 166 168 174 172 174 173 168 167 170 166 154 143 132 127 126 121 112 103 105 100 96
176 172 106 121 174 259 287 259 239 240 226 185 170 176 183 178 175 175 175 176 175 175 175 170 168 170 170 167 171 170 168 165 165 164 168 172 170 158 149 145 140 136 132 124 114 111 112 104 103
188 151 132 142 166 167 243 267 232 208 203 189 188 180 183 180 178 177 178 178 174 169 169 171 173 168 166 171 170 158 161 157 154 159 169 169 163 160 159 157 152 147 141 135 128 128 124 119 109
182 182 150 156 228 181 190 263 278 201 189 178 186 180 182 180 177 175 174 170 170 170 174 175 177 176 176 172 162 162 158 151 152 159 164 154 149 158 161 154 151 156 151 146 143 141 132 132 130